User: anonymous   Login
Location: Unspecified
(0.0000°N, 0.0000°E)
Time: 04:48:08
(UTC+01:00)
Language:

GP-B - Orbit

View from above orbital plane
View from above orbital plane
View from above satellite
View from above satellite

Ground track
Ground track

The orbit data is extracted from the following two-line orbital elements,

1 28230U 04014A   14327.60069359  .00000946  00000-0  12974-3 0  2234
2 28230 089.8797 137.7659 0001831 113.2311 246.9105 14.77769501570734
Epoch (UTC): 23 November 2014 14:24:59
Eccentricity: 0.0001831
inclination: 89.8797°
perigee height: 635 km
apogee height: 637 km
right ascension of ascending node: 137.7659°
argument of perigee: 113.2311°
revolutions per day: 14.77769501
mean anomaly at epoch: 246.9105°
orbit number at epoch: 57073

The dashed part of the orbit path shows where the satellite is in the earth's shadow,  

DLR